Location: Zagreb
(45.8000°N, 16.0000°E)
Time: 01:31:00
(UTC+02:00)

Transit 2A Rocket - Pass Details

Date: 27 January 2022
Orbit: 592 x 909 km, 66.7° (Epoch: 26 May)

Event Time Altitude Azimuth Distance (km) Brightness Sun altitude
Rises 01:33:37 0° 330° (NNW) 3,482 - -57.5°
Reaches altitude 10° 01:36:37 10° 343° (NNW) 2,501 - -57.2°
Maximum altitude 01:41:24 26° 39° (NE) 1,568 - -56.6°
Drops below altitude 10° 01:45:52 10° 95° (E) 2,325 - -56.1°
Sets 01:48:32 0° 108° (ESE) 3,190 - -55.8°
